Terminal Aerodrome Forecast
Issued by NWS Louisville, KY

Home | Current Version | Previous Version | Text Only | Print | Product List | Glossary On
Versions: 1 2 3 4 5 6 7 8 9 10 11 12
000
FTUS43 KLMK 271100 RRA
TAFBWG
TAF
KBWG 271141Z 2712/2812 23007KT P6SM SCT030 OVC035
     FM271500 25015G20KT P6SM SCT050 BKN180
     FM271800 25017G25KT P6SM VCTS BKN040CB
     FM280000 33008KT P6SM SCT070=

USA.gov is the U.S. government's official web portal to all federal, state and local government web resources and services.